Weather History for Keene, NH

Change the Weather History Date:

Friday, September 13, 2013

  Actual Average Record
Temperature  
Mean Temperature 63 °F -  
Max Temperature 69 °F 74 °F 91 °F (1948)
Min Temperature 57 °F 47 °F 32 °F (1943)
Degree Days  
Heating Degree Days 2    
Growing Degree Days 13 (Base 50)    
Moisture  
Dew Point 59 °F    
Average Humidity 83    
Maximum Humidity 94    
Minimum Humidity 68    
Precipitation  
Precipitation 0.06 in - - ()
Sea Level Pressure  
Sea Level Pressure 29.67 in    
Wind  
Wind Speed 5 mph (NNW)    
Max Wind Speed 18 mph    
Max Gust Speed 22 mph    
Visibility 9 miles    
Events      
Averages and records for this station are not official NWS values.
T = Trace of Precipitation, MM = Missing Value Source: NWS Daily Summary

Daily Weather History Graph

Daily Weather History Graph

Search for Another Location

Airport:

Trip Planner

Search our weather history database for the weather conditions in past years. The results will help you decide how hot, cold, wet, or windy it might be!

Date:

Astronomy

Sep. 13, 2013 Rise Set
Actual Time 6:26 AM EDT 7:02 PM EDT
Civil Twilight 5:58 AM EDT 7:30 PM EDT
Nautical Twilight 5:24 AM EDT 8:04 PM EDT
Astronomical Twilight 4:49 AM EDT 8:39 PM EDT
Moon 2:55 PM EDT (9/13) No Moon Set
Length of Visible Light 13h 32m
Length of Day
12h 35m
First Quarter, 61% of the Moon is Illuminated
Sep 13
First Quarter
Sep 19
Full
Sep 26
Last Quarter
Oct 4
New
Oct 11
First Quarter

Hourly Weather History & Observations

Time (EDT) Temp. Dew Point Humidity Pressure Visibility Wind Dir Wind Speed Gust Speed Precip Events Conditions
12:15 AM 66.2 °F 64.4 °F 94% 29.67 in 6.0 mi South 4.6 mph - N/A   Overcast
12:35 AM - - N/A% 29.67 in 7.0 mi Calm Calm - N/A   Overcast
12:55 AM - - N/A% 29.66 in 7.0 mi Calm Calm - N/A   Overcast
1:15 AM - - N/A% 29.65 in 10.0 mi SSW 3.5 mph - N/A   Overcast
1:35 AM - - N/A% 29.66 in 10.0 mi South 5.8 mph - N/A   Overcast
1:55 AM - - N/A% 29.66 in 9.0 mi South 4.6 mph - N/A   Overcast
2:15 AM - - N/A% 29.65 in 10.0 mi SSW 3.5 mph - 0.02 in   Overcast
2:35 AM - - N/A% 29.64 in 9.0 mi Calm Calm - 0.02 in   Overcast
2:55 AM 66.2 °F 64.4 °F 94% 29.64 in 7.0 mi Calm Calm - 0.03 in   Overcast
3:15 AM - - N/A% 29.63 in 7.0 mi South 4.6 mph - 0.01 in   Overcast
3:35 AM - - N/A% 29.62 in 10.0 mi South 3.5 mph - 0.01 in   Overcast
3:55 AM - - N/A% 29.62 in 10.0 mi SSW 4.6 mph - 0.01 in   Overcast
4:15 AM - - N/A% 29.61 in 9.0 mi Calm Calm - N/A   Overcast
4:35 AM 66.2 °F 64.4 °F 94% 29.62 in 7.0 mi Calm Calm - N/A   Mostly Cloudy
4:55 AM - - N/A% 29.61 in 5.0 mi Calm Calm - N/A   Partly Cloudy
5:15 AM - - N/A% 29.61 in 5.0 mi Calm Calm - N/A   Scattered Clouds
5:35 AM 64.4 °F 62.6 °F 94% 29.63 in 5.0 mi Calm Calm - 0.01 in   Mostly Cloudy
5:55 AM 64.4 °F 62.6 °F 94% 29.63 in 5.0 mi Calm Calm - 0.01 in   Scattered Clouds
6:16 AM 64.4 °F 62.6 °F 94% 29.63 in 8.0 mi Calm Calm - 0.01 in   Partly Cloudy
6:35 AM 64.4 °F 62.6 °F 94% 29.63 in 7.0 mi SSW 3.5 mph - 0.01 in   Clear
6:55 AM 64.4 °F 62.6 °F 94% 29.63 in 5.0 mi Calm Calm - 0.01 in   Clear
7:15 AM 64.4 °F 62.6 °F 94% 29.63 in 5.0 mi Calm Calm - N/A   Partly Cloudy
7:35 AM 64.4 °F 62.6 °F 94% 29.63 in 7.0 mi Calm Calm - N/A   Scattered Clouds
7:55 AM 64.4 °F 62.6 °F 94% 29.64 in 8.0 mi Calm Calm - N/A   Mostly Cloudy
8:15 AM 66.2 °F 62.6 °F 88% 29.63 in 9.0 mi Calm Calm - N/A   Overcast
8:35 AM 66.2 °F 64.4 °F 94% 29.63 in 10.0 mi South 3.5 mph - N/A   Overcast
8:55 AM 66.2 °F 64.4 °F 94% 29.63 in 10.0 mi SSW 3.5 mph - N/A   Overcast
9:15 AM 68.0 °F 62.6 °F 83% 29.63 in 10.0 mi West 4.6 mph - N/A   Overcast
9:35 AM 68.0 °F 64.4 °F 88% 29.63 in 10.0 mi Calm Calm - N/A   Overcast
9:55 AM 68.0 °F 64.4 °F 88% 29.63 in 10.0 mi Calm Calm - N/A   Overcast
10:15 AM 66.2 °F 62.6 °F 88% 29.63 in 10.0 mi North 6.9 mph - N/A   Overcast
10:35 AM 66.2 °F 62.6 °F 88% 29.63 in 10.0 mi NNW 5.8 mph - N/A   Mostly Cloudy
10:55 AM 68.0 °F 62.6 °F 83% 29.63 in 10.0 mi North 8.1 mph - N/A   Mostly Cloudy
11:15 AM 69.8 °F 62.6 °F 78% 29.63 in 10.0 mi NNW 6.9 mph - N/A   Overcast
11:35 AM 68.0 °F 60.8 °F 78% 29.64 in 10.0 mi NNW 9.2 mph - N/A   Overcast
11:55 AM 68.0 °F 60.8 °F 78% 29.64 in 10.0 mi North 6.9 mph - N/A   Overcast
12:15 PM 69.8 °F 62.6 °F 78% 29.64 in 10.0 mi North 8.1 mph - N/A   Overcast
12:35 PM 68.0 °F 60.8 °F 78% 29.64 in 10.0 mi North 10.4 mph 17.3 mph N/A   Overcast
12:55 PM 69.8 °F 59.0 °F 68% 29.63 in 10.0 mi North 16.1 mph 20.7 mph N/A   Scattered Clouds
1:15 PM 68.0 °F 57.2 °F 68% 29.64 in 10.0 mi North 15.0 mph 21.9 mph N/A   Scattered Clouds
1:35 PM - - N/A% 29.63 in 10.0 mi North 17.3 mph 20.7 mph N/A   Mostly Cloudy
1:55 PM 66.2 °F 57.2 °F 73% 29.64 in 10.0 mi North 15.0 mph - N/A   Overcast
2:15 PM - - N/A% 29.63 in 10.0 mi North 17.3 mph - N/A   Overcast
2:35 PM - - N/A% 29.63 in 10.0 mi North 12.7 mph - N/A   Overcast
2:55 PM - - N/A% 29.64 in 10.0 mi North 11.5 mph - N/A   Overcast
3:15 PM - - N/A% 29.65 in 10.0 mi NNW 9.2 mph - N/A   Overcast
3:35 PM - - N/A% 29.66 in 10.0 mi North 18.4 mph 21.9 mph N/A   Overcast
3:55 PM - - N/A% 29.66 in 10.0 mi North 16.1 mph - N/A   Mostly Cloudy
4:15 PM - - N/A% 29.66 in 10.0 mi North 16.1 mph 20.7 mph N/A   Mostly Cloudy
4:35 PM - - N/A% 29.67 in 10.0 mi North 11.5 mph 18.4 mph N/A   Overcast
4:55 PM - - N/A% 29.68 in 10.0 mi North 9.2 mph - N/A   Overcast
5:15 PM - - N/A% 29.67 in 10.0 mi NNW 11.5 mph - N/A   Mostly Cloudy
5:35 PM - - N/A% 29.68 in 10.0 mi North 11.5 mph 18.4 mph N/A   Partly Cloudy
5:55 PM 64.4 °F 55.4 °F 73% 29.68 in 10.0 mi North 10.4 mph - N/A   Mostly Cloudy
6:15 PM 64.4 °F 53.6 °F 68% 29.70 in 10.0 mi North 6.9 mph - N/A   Overcast
6:35 PM 64.4 °F 55.4 °F 73% 29.70 in 10.0 mi NW 6.9 mph - N/A   Overcast
6:55 PM - - N/A% 29.71 in 10.0 mi NW 6.9 mph - N/A   Overcast
7:15 PM - - N/A% 29.73 in 10.0 mi NW 6.9 mph - N/A   Overcast
7:35 PM 60.8 °F 53.6 °F 77% 29.74 in 10.0 mi NNW 6.9 mph - N/A   Overcast
7:55 PM 60.8 °F 53.6 °F 77% 29.75 in 10.0 mi NNW 6.9 mph - N/A   Overcast
8:15 PM 60.8 °F 53.6 °F 77% 29.76 in 10.0 mi NNW 6.9 mph - N/A   Overcast
8:35 PM 60.8 °F 53.6 °F 77% 29.76 in 10.0 mi NNW 8.1 mph - N/A   Overcast
8:55 PM 60.8 °F 51.8 °F 72% 29.77 in 10.0 mi NNW 5.8 mph - N/A   Overcast
9:15 PM 59.0 °F 51.8 °F 77% 29.78 in 10.0 mi NNW 5.8 mph - N/A   Overcast
9:35 PM 59.0 °F 51.8 °F 77% 29.78 in 10.0 mi NW 5.8 mph - N/A   Overcast
9:55 PM 59.0 °F 51.8 °F 77% 29.79 in 10.0 mi NNW 5.8 mph - N/A   Overcast
10:15 PM 59.0 °F 51.8 °F 77% 29.79 in 10.0 mi North 9.2 mph - N/A   Overcast
10:35 PM 59.0 °F 51.8 °F 77% 29.80 in 10.0 mi North 6.9 mph - N/A   Overcast
10:55 PM 57.2 °F 51.8 °F 82% 29.80 in 10.0 mi North 8.1 mph - N/A   Overcast
11:15 PM 57.2 °F 51.8 °F 82% 29.80 in 10.0 mi NNW 6.9 mph - N/A   Overcast
11:35 PM - - N/A% 29.79 in 10.0 mi NW 5.8 mph - N/A   Overcast
11:55 PM - - N/A% 29.79 in 10.0 mi NNW 6.9 mph - N/A   Overcast